TimeEST,TemperatureF,Dew PointF,Humidity,Sea Level PressureIn,VisibilityMPH,Wind Direction,Wind SpeedMPH,Gust SpeedMPH,PrecipitationIn,Events,Conditions,WindDirDegrees,DateUTC
12:56 AM,45.0,37.9,76,30.36,10.0,NNE,3.5,-,N/A,,Clear,30,2013-11-04 05:56:00
1:56 AM,45.0,37.0,74,30.37,10.0,NE,6.9,-,N/A,,Clear,50,2013-11-04 06:56:00
2:56 AM,45.0,35.1,68,30.37,10.0,ENE,9.2,-,N/A,,Clear,60,2013-11-04 07:56:00
3:56 AM,46.0,35.1,66,30.37,10.0,ENE,9.2,-,N/A,,Clear,60,2013-11-04 08:56:00
4:56 AM,45.0,34.0,65,30.39,10.0,NE,9.2,-,N/A,,Clear,50,2013-11-04 09:56:00
5:56 AM,44.1,34.0,68,30.43,10.0,ENE,6.9,-,N/A,,Clear,60,2013-11-04 10:56:00
6:56 AM,43.0,35.1,74,30.43,10.0,NE,11.5,-,N/A,,Clear,50,2013-11-04 11:56:00
7:56 AM,46.9,36.0,66,30.46,10.0,NE,9.2,-,N/A,,Clear,50,2013-11-04 12:56:00
8:56 AM,50.0,35.1,57,30.49,10.0,ENE,12.7,-,N/A,,Clear,70,2013-11-04 13:56:00
9:56 AM,52.0,35.1,53,30.49,10.0,East,12.7,-,N/A,,Clear,80,2013-11-04 14:56:00
10:56 AM,55.0,33.1,43,30.49,10.0,East,10.4,-,N/A,,Clear,80,2013-11-04 15:56:00
11:56 AM,57.0,32.0,39,30.48,10.0,ESE,10.4,-,N/A,,Clear,110,2013-11-04 16:56:00
12:56 PM,59.0,32.0,36,30.46,10.0,ENE,11.5,-,N/A,,Clear,60,2013-11-04 17:56:00
1:56 PM,59.0,32.0,36,30.44,10.0,ENE,8.1,19.6,N/A,,Clear,70,2013-11-04 18:56:00
2:56 PM,60.1,34.0,38,30.43,10.0,East,8.1,-,N/A,,Clear,90,2013-11-04 19:56:00
3:56 PM,59.0,34.0,39,30.43,10.0,East,8.1,-,N/A,,Clear,80,2013-11-04 20:56:00
4:56 PM,57.9,34.0,41,30.43,10.0,ENE,6.9,-,N/A,,Clear,60,2013-11-04 21:56:00
5:56 PM,53.1,37.0,55,30.43,10.0,NE,3.5,-,N/A,,Clear,50,2013-11-04 22:56:00
6:56 PM,50.0,37.0,61,30.44,10.0,NE,4.6,-,N/A,,Clear,50,2013-11-04 23:56:00
7:56 PM,48.9,37.0,64,30.45,10.0,ENE,4.6,-,N/A,,Clear,60,2013-11-05 00:56:00
8:56 PM,48.0,36.0,63,30.45,10.0,ENE,6.9,-,N/A,,Clear,60,2013-11-05 01:56:00
9:56 PM,46.9,35.1,63,30.48,10.0,ENE,6.9,-,N/A,,Clear,60,2013-11-05 02:56:00
10:56 PM,46.0,35.1,66,30.48,10.0,ENE,8.1,-,N/A,,Clear,60,2013-11-05 03:56:00
11:56 PM,45.0,35.1,68,30.47,10.0,ENE,10.4,-,N/A,,Clear,70,2013-11-05 04:56:00